Погода в Теньковке

Россия / Ульяновская область     54°20′57″N   47°18′28″E
темп.,
°C
ветер,
м/с
пор.,
м/с
влажн.,
%
обл.,
%
осадки,
мм/ч
давл.,
гПа
погр.,
м
23 сентября, чт
чт2301:00+8вюв41089100 0.0 1017308
04:00+9вюв61390100 0.1 1017415
07:00+9вюв6137990 0.0 1017454
10:00+11юв61369100 0.0 1017570
13:00+13ююв81274100 0.1 1017921
16:00+11юв61264100 0.3 1017491
19:00+10юв61376100 0.0 1017575
22:00+8юв51289100 1.4 1017503
24 сентября, пт
пт2401:00+9вюв41191100 1.9 1016416
04:00+8вюв51193100 2.6 1014640
07:00+9юв41092100 0.4 1013502
10:00+10юв41191100 0.9 1013558
13:00+9ююв51191100 1.2 1012482
16:00+9юв51394100 5.3 1012701
19:00+8юв61594100 3.4 1013812
22:00+9юв41282100 4.4 1012505
25 сентября, сб
сб2501:00+8юв3790100 0.4 1011305
04:00+8юв3696100 0.4 1005369
07:00+8в4893100 0.6 1009299
10:00+8в4893100 0.7 1009390
13:00+8вюв2393100 0.5 1008229
16:00+8юв1193100 0.6 1009122
19:00+8вюв1195100 0.1 100916
22:00+8ююз1195100 0.1 101016
26 сентября, вс
вс2601:00+8зсз1195100 0.1 101016
04:00+8сз1194100 0.1 101033
07:00+7зсз119699 0.0 101113
10:00+9сз1284100 0.0 1010353
13:00+12ссз1168100 0.1 1010833
16:00+13св2265100 0.8 1010874
19:00+10вюв358597 1.4 1011146
22:00+8всв229035 1.6 101233
27 сентября, пн
пн2701:00+9с2490100 0.0 1012160
04:00+8с269093 0.0 1013267
07:00+8ссв41090100 0.0 1014409
10:00+9всв6984100 0.0 1016735
13:00+8всв6989100 0.1 1019765
16:00+7всв71090100 0.3 1022740
19:00+5всв61094100 0.3 1025830
22:00+5в6118598 0.4 1026932